Change the Weather History Date:

Monday, June 17, 2013

  Actual Average (KDRO) Record (KDRO)
Temperature  
Mean Temperature 64 °F 63 °F  
Max Temperature 82 °F 82 °F 91 °F (1986)
Min Temperature 47 °F 43 °F 32 °F (1973)
Degree Days  
Heating Degree Days 0 3  
Month to date heating degree days 90  
Since 1 June heating degree days 90  
Since 1 July heating degree days 7098  
Cooling Degree Days 0 1  
Month to date cooling degree days 10  
Year to date cooling degree days 11  
Since 1 June cooling degree days 10  
Growing Degree Days 14 (Base 50)    
Moisture  
Dew Point 25 °F    
Average Humidity 25    
Maximum Humidity 52    
Minimum Humidity 9    
Precipitation  
Precipitation 0.00 in 0.03 in 0.16 in (1985)
Month to date precipitation 0.25  
Year to date precipitation 5.68  
Sea Level Pressure  
Sea Level Pressure 30.27 in    
Wind  
Wind Speed 3 mph (WSW)    
Max Wind Speed 18 mph    
Max Gust Speed 32 mph    
Visibility 10 miles    
Events      
T = Trace of Precipitation, MM = Missing Value Source: NWS Daily Summary

Daily Weather History Graph

Daily Weather History Graph

Search for Another Location

Airport or City:

Trip Planner

Search our weather history database for the weather conditions in past years. The results will help you decide how hot, cold, wet, or windy it might be!

Date:

Astronomy

Jun. 17, 2013 Rise Set
Actual Time 5:47 AM MDT 8:31 PM MDT
Civil Twilight 5:16 AM MDT 9:02 PM MDT
Nautical Twilight 4:37 AM MDT 9:40 PM MDT
Astronomical Twilight 3:53 AM MDT 10:24 PM MDT
Moon 2:19 PM MDT (6/17) 1:17 AM MDT (6/17)
Length of Visible Light 15h 45m
Length of Day
14h 43m
First Quarter, 61% of the Moon is Illuminated
Jun 17
First Quarter
Jun 23
Full
Jun 29
Last Quarter
Jul 8
New
Jul 15
First Quarter

Hourly Weather History & Observations

Time (MDT) Temp. Dew Point Humidity Pressure Visibility Wind Dir Wind Speed Gust Speed Precip Events Conditions
12:15 AM 57.9 °F 27.5 °F 31% 30.29 in 10.0 mi Calm Calm - N/A   Scattered Clouds
12:35 AM 56.3 °F 27.7 °F 33% 30.29 in 10.0 mi Calm Calm - N/A   Scattered Clouds
12:55 AM 56.7 °F 30.2 °F 37% 30.29 in 10.0 mi Calm Calm - N/A   Clear
1:15 AM 53.4 °F 29.7 °F 40% 30.29 in 10.0 mi Calm Calm - N/A   Clear
1:35 AM 52.2 °F 28.4 °F 40% 30.29 in 10.0 mi Calm Calm - N/A   Clear
1:55 AM 51.6 °F 28.6 °F 41% 30.29 in 10.0 mi Calm Calm - N/A   Clear
2:15 AM 53.4 °F 28.9 °F 39% 30.28 in 10.0 mi Calm Calm - N/A   Scattered Clouds
2:35 AM 52.3 °F 31.1 °F 44% 30.29 in 10.0 mi Calm Calm - N/A   Scattered Clouds
2:55 AM 52.9 °F 31.1 °F 43% 30.30 in 10.0 mi Calm Calm - N/A   Scattered Clouds
3:15 AM 54.5 °F 29.8 °F 39% 30.29 in 7.0 mi Calm Calm - N/A   Scattered Clouds
3:35 AM 55.6 °F 30.6 °F 39% 30.29 in 10.0 mi Calm Calm - N/A   Scattered Clouds
3:55 AM 52.7 °F 30.2 °F 42% 30.29 in 10.0 mi Calm Calm - N/A   Clear
4:15 AM 52.9 °F 32.0 °F 45% 30.29 in 10.0 mi Calm Calm - N/A   Clear
4:35 AM 52.9 °F 32.0 °F 45% 30.30 in 10.0 mi Calm Calm - N/A   Clear
4:55 AM 54.0 °F 30.4 °F 41% 30.30 in 10.0 mi Calm Calm - N/A   Clear
5:15 AM 49.6 °F 31.3 °F 49% 30.31 in 10.0 mi Calm Calm - N/A   Clear
5:35 AM 48.6 °F 30.4 °F 50% 30.31 in 10.0 mi Calm Calm - N/A   Clear
5:55 AM 47.7 °F 30.7 °F 52% 30.31 in 10.0 mi Calm Calm - N/A   Clear
6:15 AM 48.2 °F 31.5 °F 52% 30.32 in 10.0 mi Calm Calm - N/A   Clear
6:35 AM 50.7 °F 32.2 °F 49% 30.32 in 10.0 mi Calm Calm - N/A   Clear
6:55 AM 52.3 °F 34.0 °F 50% 30.32 in 10.0 mi Calm Calm - N/A   Clear
7:15 AM 57.4 °F 35.4 °F 44% 30.32 in 10.0 mi Calm Calm - N/A   Scattered Clouds
7:35 AM 59.2 °F 33.8 °F 38% 30.32 in 10.0 mi Calm Calm - N/A   Clear
7:55 AM 61.0 °F 32.0 °F 34% 30.32 in 10.0 mi Calm Calm - N/A   Clear
8:15 AM 62.8 °F 32.0 °F 32% 30.32 in 10.0 mi Calm Calm - N/A   Clear
8:35 AM 65.3 °F 32.2 °F 29% 30.32 in 10.0 mi Calm Calm - N/A   Clear
8:55 AM 66.7 °F 32.0 °F 27% 30.33 in 10.0 mi Calm Calm - N/A   Clear
9:15 AM 70.0 °F 30.4 °F 23% 30.33 in 10.0 mi Calm Calm - N/A   Clear
9:35 AM 71.1 °F 30.9 °F 23% 30.32 in 10.0 mi Calm Calm - N/A   Clear
9:55 AM 72.7 °F 29.3 °F 20% 30.32 in 10.0 mi East 3.5 mph - N/A   Clear
10:15 AM 72.3 °F 28.8 °F 20% 30.31 in 10.0 mi SE 3.5 mph - N/A   Clear
10:35 AM 74.5 °F 28.4 °F 18% 30.31 in 10.0 mi ENE 5.8 mph - N/A   Clear
10:55 AM 75.0 °F 26.4 °F 17% 30.31 in 10.0 mi WSW 4.6 mph - N/A   Clear
11:15 AM 76.6 °F 22.6 °F 13% 30.31 in 10.0 mi West 3.5 mph - N/A   Clear
11:35 AM 76.5 °F 19.2 °F 12% 30.30 in 10.0 mi South 5.8 mph - N/A   Clear
11:55 AM 75.9 °F 16.5 °F 11% 30.30 in 10.0 mi SW 13.8 mph 18.4 mph N/A   Scattered Clouds
12:15 PM 76.8 °F 16.7 °F 10% 30.30 in 10.0 mi WSW 10.4 mph 17.3 mph N/A   Scattered Clouds
12:35 PM 75.9 °F 19.0 °F 12% 30.30 in 10.0 mi West 6.9 mph - N/A   Scattered Clouds
12:55 PM 77.9 °F 17.1 °F 10% 30.29 in 10.0 mi SSW 12.7 mph 19.6 mph N/A   Scattered Clouds
1:15 PM 78.6 °F 19.2 °F 11% 30.29 in 10.0 mi South 4.6 mph - N/A   Clear
1:35 PM 79.3 °F 16.5 °F 9% 30.28 in 10.0 mi WSW 15.0 mph 24.2 mph N/A   Clear
1:55 PM 79.3 °F 16.2 °F 9% 30.28 in 10.0 mi SW 9.2 mph 24.2 mph N/A   Clear
2:15 PM 79.9 °F 16.7 °F 9% 30.27 in 10.0 mi WSW 11.5 mph 23.0 mph N/A   Scattered Clouds
2:35 PM 80.8 °F 18.7 °F 10% 30.26 in 10.0 mi WSW 17.3 mph 31.1 mph N/A   Scattered Clouds
2:55 PM 80.8 °F 18.5 °F 10% 30.26 in 10.0 mi WSW 15.0 mph 27.6 mph N/A   Scattered Clouds
3:15 PM 79.7 °F 20.1 °F 11% 30.25 in 10.0 mi WSW 12.7 mph 20.7 mph N/A   Clear
3:35 PM 80.8 °F 21.2 °F 11% 30.25 in 10.0 mi WSW 12.7 mph 25.3 mph N/A   Clear
3:55 PM 82.2 °F 21.7 °F 11% 30.24 in 10.0 mi West 12.7 mph 23.0 mph N/A   Scattered Clouds
4:15 PM 80.8 °F 18.5 °F 10% 30.24 in 10.0 mi SW 8.1 mph 26.5 mph N/A   Scattered Clouds
4:35 PM 80.6 °F 18.9 °F 10% 30.23 in 10.0 mi West 15.0 mph 23.0 mph N/A   Clear
4:55 PM 79.3 °F 16.9 °F 10% 30.23 in 10.0 mi SSW 13.8 mph 18.4 mph N/A   Clear
5:15 PM 80.8 °F 17.8 °F 10% 30.22 in 10.0 mi SW 9.2 mph 18.4 mph N/A   Clear
5:35 PM 80.6 °F 16.2 °F 9% 30.21 in 10.0 mi WSW 11.5 mph 18.4 mph N/A   Clear
5:55 PM 79.2 °F 16.5 °F 10% 30.21 in 10.0 mi West 8.1 mph - N/A   Clear
6:15 PM 78.3 °F 16.9 °F 10% 30.21 in 10.0 mi WSW 9.2 mph - N/A   Clear
6:35 PM 77.7 °F 15.4 °F 10% 30.21 in 10.0 mi West 12.7 mph 32.2 mph N/A   Clear
6:55 PM 77.9 °F 15.8 °F 10% 30.20 in 10.0 mi WSW 5.8 mph - N/A   Clear
7:15 PM 78.3 °F 17.2 °F 10% 30.20 in 10.0 mi West 5.8 mph - N/A   Clear
7:35 PM 78.4 °F 17.1 °F 10% 30.21 in 10.0 mi South 18.4 mph 26.5 mph N/A   Clear
7:55 PM 74.7 °F 20.5 °F 13% 30.21 in 10.0 mi SE 4.6 mph 18.4 mph N/A   Clear
8:15 PM 74.7 °F 19.2 °F 12% 30.21 in 10.0 mi Calm Calm - N/A   Clear
8:35 PM 69.1 °F 23.0 °F 18% 30.21 in 10.0 mi Calm Calm - N/A   Clear
8:55 PM 66.6 °F 23.4 °F 19% 30.21 in 10.0 mi Calm Calm - N/A   Clear
9:15 PM 66.0 °F 22.8 °F 19% 30.22 in 10.0 mi ENE 5.8 mph - N/A   Clear
9:35 PM 62.2 °F 25.0 °F 24% 30.22 in 10.0 mi Calm Calm - N/A   Clear
9:55 PM 59.9 °F 25.2 °F 26% 30.22 in 10.0 mi Calm Calm - N/A   Clear
10:15 PM 59.7 °F 25.5 °F 27% 30.24 in 10.0 mi NNE 3.5 mph - N/A   Clear
10:35 PM 60.3 °F 25.2 °F 26% 30.24 in 10.0 mi North 4.6 mph - N/A   Clear
10:55 PM 62.4 °F 24.8 °F 24% 30.24 in 10.0 mi North 5.8 mph - N/A   Clear
11:15 PM 63.7 °F 26.2 °F 24% 30.24 in 10.0 mi North 6.9 mph - N/A   Clear
11:35 PM 62.6 °F 25.7 °F 25% 30.24 in 7.0 mi NNE 4.6 mph - N/A   Clear
11:55 PM 60.6 °F 24.8 °F 25% 30.24 in 5.0 mi Calm Calm - N/A   Haze